Preview of NWS' New Version of Forecast
This preview is not operational and should not be used for support decisions.

Regional Weather Roundup (RWR)

Issued by Binghamton, NY (BGM)

                            
541 
ASUS41 KBGM 212310
RWRBGM

REGIONAL WEATHER ROUNDUP
NATIONAL WEATHER SERVICE BINGHAMTON NY
700 PM EDT THU JUN 21 2018

Note: "fair" indicates few or no clouds below 12,000 feet with no
significant weather and/or obstructions to visibility.

* = Station(s) that does not report precipitation, such as rain, 
snow, etc, also no thunder or fog.

NYZ009-015>018-022>025-036-037-044>046-055>057-062-220000
...Central New York...
  
CITY           SKY/WX    TMP DP  RH WIND       PRES   REMARKS
Binghamton     FAIR      71  52  50 N10       29.88R                  
Cortland       FAIR      68  39  34 N5        29.91R                  
Dansville      FAIR      72  48  42 N12       29.90R                  
Elmira         FAIR      71  54  54 NE8       29.88R                  
Seneca Falls   CLEAR     68  36  30 N6        29.91F                  
Ithaca         FAIR      66  43  43 W13       29.91R                  
Hamilton       SUNNY     70  43  37 N8        29.89S                  
Hornell        SUNNY     70  54  56 NE7       29.93R                  
Monticello       N/A    N/A N/A N/A MISG        N/A                   
Oneonta        SUNNY     70  48  46 CALM      29.89S                  
Penn Yan       FAIR      69  38  32 N9        29.92R                  
Rome           FAIR      73  42  32 N9        29.88R                  
Sidney         SUNNY     73  52  46 N6        29.87R                  
Syracuse       FAIR      70  49  47 NW12      29.88S                  
$$
 
PAZ038>040-043-044-047-048-072-220000
...Northeast Pennsylvania...
  
CITY           SKY/WX    TMP DP  RH WIND       PRES   REMARKS
Hazleton       FAIR      77  55  47 N5        29.88R                  
Scranton       FAIR      80  58  46 N10       29.82R                  
$$
&&
KEY
WCI = Wind Chill Index
VSB = Visibility
HX  = Heat Index
$$